Tracking 19800 objects as of 24-Jul-2019
HD Live streaming from Space Station
objects crossing your sky now

SL-3 R/B

Track SL-3 R/B now!
10-day predictions


NORAD ID: 7275
Int'l Code: 1974-025B
Perigee: 838.2 km
Apogee: 917.9 km
Inclination: 81.2 °
Period: 102.4 minutes
Semi major axis: 7249 km
RCS: 7.5013 m2 (large)
Launch date: April 24, 1974
Source: Commonwealth of Independent States (former USSR) (CIS)
Launch site: PLESETSK MISSILE AND SPACE COMPLEX (PKMTR)

Note: This is a ROCKET BODY
aabbcc
Your satellite tracking list
Your tracking list is empty




NASA's NSSDC Master Catalog

Two Line Element Set (TLE):
1  7275U 74025B   19204.37779084 -.00000009  00000-0 -12324-4 0  9997
2  7275  81.2448 293.5337 0054995 239.6247 119.9479 14.06636937321020
Source of the keplerian elements: AFSPC